H1 CPF 1 NER 2011 12 31 9 8651 glonass129 H2 1106402 9129 37868 2011 12 31 0 0 0 2012 1 3 23 45 0 900 1 1 0 0 0 H9 10 0 55926 0.00000 0 23251800.613 -9368153.476 -4686560.047 10 0 55926 900.00000 0 22502244.559 -9124857.185 -7782089.549 10 0 55926 1800.00000 0 21460114.427 -8625369.616 -10726264.507 10 0 55926 2700.00000 0 20176546.010 -7842105.598 -13461744.107 10 0 55926 3600.00000 0 18709244.192 -6758956.421 -15935214.677 10 0 55926 4500.00000 0 17120038.945 -5372242.037 -18098439.345 10 0 55926 5400.00000 0 15472284.562 -3691141.455 -19909209.468 10 0 55926 6300.00000 0 13828212.054 -1737580.721 -21332178.360 10 0 55926 7200.00000 0 12246346.796 454418.778 -22339560.175 10 0 55926 8100.00000 0 10779100.692 2839906.080 -22911679.715 10 0 55926 9000.00000 0 9470640.688 5364632.983 -23037361.921 10 0 55926 9900.00000 0 8355123.670 7967085.387 -22714153.115 10 0 55926 10800.00000 0 7455372.032 10580829.252 -21948369.500 10 0 55926 11700.00000 0 6782045.369 13137073.215 -20754971.935 10 0 55926 12600.00000 0 6333342.541 15567340.641 -19157269.531 10 0 55926 13500.00000 0 6095245.648 17806139.214 -17186458.118 10 0 55926 14400.00000 0 6042294.299 19793516.268 -14881002.965 10 0 55926 15300.00000 0 6138855.960 21477392.789 -12285878.420 10 0 55926 16200.00000 0 6340836.990 22815578.602 -9451680.023 10 0 55926 17100.00000 0 6597760.246 23777384.794 -6433627.250 10 0 55926 18000.00000 0 6855119.692 24344766.612 -3290477.400 10 0 55926 18900.00000 0 7056910.818 24512950.161 -83372.758 10 0 55926 19800.00000 0 7148228.498 24290518.191 3125355.568 10 0 55926 20700.00000 0 7077821.466 23698953.149 6273402.949 10 0 55926 21600.00000 0 6800494.791 22771658.626 9299701.536 10 0 55926 22500.00000 0 6279258.659 21552502.053 12145601.804 10 0 55926 23400.00000 0 5487132.913 20093941.394 14756002.517 10 0 55926 24300.00000 0 4408531.601 18454815.523 17080407.761 10 0 55926 25200.00000 0 3040169.667 16697891.456 19073891.587 10 0 55926 26100.00000 0 1391454.068 14887271.155 20697952.736 10 0 55926 27000.00000 0 -515657.026 13085765.746 21921244.471 10 0 55926 27900.00000 0 -2647321.366 11352345.692 22720166.927 10 0 55926 28800.00000 0 -4958978.877 9739771.885 23079311.939 10 0 55926 29700.00000 0 -7396969.622 8292504.700 22991753.015 10 0 55926 30600.00000 0 -9900537.747 7044976.358 22459175.672 10 0 55926 31500.00000 0 -12404139.895 6020297.044 21491845.995 10 0 55926 32400.00000 0 -14839964.298 5229447.317 20108417.925 10 0 55926 33300.00000 0 -17140557.965 4670989.576 18335582.366 10 0 55926 34200.00000 0 -19241454.634 4331310.150 16207563.878 10 0 55926 35100.00000 0 -21083695.800 4185381.787 13765473.344 10 0 55926 36000.00000 0 -22616141.007 4198014.910 11056527.561 10 0 55926 36900.00000 0 -23797471.639 4325545.643 8133149.391 10 0 55926 37800.00000 0 -24597804.624 4517890.284 5051964.467 10 0 55926 38700.00000 0 -24999848.158 4720880.194 1872712.697 10 0 55926 39600.00000 0 -24999550.139 4878778.949 -1342904.995 10 0 55926 40500.00000 0 -24606211.063 4936875.361 -4532422.735 10 0 55926 41400.00000 0 -23842055.366 4844042.229 -7633825.354 10 0 55926 42300.00000 0 -22741278.059 4555151.602 -10586759.473 10 0 55926 43200.00000 0 -21348605.725 4033242.907 -13333715.824 10 0 55926 44100.00000 0 -19717431.639 3251350.403 -15821158.907 10 0 55926 45000.00000 0 -17907603.076 2193910.597 -18000580.907 10 0 55926 45900.00000 0 -15982953.737 857687.925 -19829458.361 10 0 55926 46800.00000 0 -14008685.231 -747822.647 -21272092.009 10 0 55926 47700.00000 0 -12048708.044 -2600535.148 -22300312.595 10 0 55926 48600.00000 0 -10163054.197 -4666450.303 -22894038.221 10 0 55926 49500.00000 0 -8405470.623 -6900844.495 -23041671.870 10 0 55926 50400.00000 0 -6821294.702 -9249921.200 -22740331.011 10 0 55926 51300.00000 0 -5445701.179 -11652856.408 -21995904.607 10 0 55926 52200.00000 0 -4302393.793 -14044152.777 -20822936.356 10 0 55926 53100.00000 0 -3402796.030 -16356203.837 -19244336.566 10 0 55926 54000.00000 0 -2745773.956 -18521960.800 -17290928.523 10 0 55926 54900.00000 0 -2317901.398 -20477589.983 -15000838.567 10 0 55926 55800.00000 0 -2094254.642 -22165009.195 -12418742.403 10 0 55926 56700.00000 0 -2039701.183 -23534196.709 -9594983.056 10 0 55926 57600.00000 0 -2110626.058 -24545176.075 -6584578.505 10 0 55926 58500.00000 0 -2257020.840 -25169593.945 -3446139.413 10 0 55926 59400.00000 0 -2424845.026 -25391825.488 -240719.005 10 0 55926 60300.00000 0 -2558558.283 -25209562.141 2969381.546 10 0 55926 61200.00000 0 -2603715.169 -24633858.451 6121828.068 10 0 55926 62100.00000 0 -2509511.667 -23688637.672 9155464.492 10 0 55926 63000.00000 0 -2231175.450 -22409678.499 12011496.356 10 0 55926 63900.00000 0 -1732098.873 -20843126.947 14634623.774 10 0 55926 64800.00000 0 -985624.957 -19043596.926 16974102.497 10 0 55926 65700.00000 0 23588.432 -17071939.730 18984713.461 10 0 55926 66600.00000 0 1298683.132 -14992775.923 20627623.246 10 0 55926 67500.00000 0 2830230.821 -12871892.276 21871120.314 10 0 55926 68400.00000 0 4596394.271 -10773611.363 22691214.330 10 0 55926 69300.00000 0 6563613.338 -8758242.037 23072088.422 10 0 55926 70200.00000 0 8687787.929 -6879715.194 23006396.885 10 0 55926 71100.00000 0 10915909.977 -5183501.284 22495403.428 10 0 55926 72000.00000 0 13188078.087 -3704894.434 21548957.693 10 0 55926 72900.00000 0 15439812.971 -2467732.910 20185310.412 10 0 55926 73800.00000 0 17604579.414 -1483607.870 18430770.147 10 0 55926 74700.00000 0 19616411.665 -751592.541 16319207.273 10 0 55926 75600.00000 0 21412534.672 -258502.626 13891413.430 10 0 55926 76500.00000 0 22935873.182 20323.042 11194327.298 10 0 55926 77400.00000 0 24137344.693 119754.034 8280140.189 10 0 55926 78300.00000 0 24977840.680 83164.925 5205297.349 10 0 55926 79200.00000 0 25429812.821 -39631.837 2029413.140 10 0 55926 80100.00000 0 25478396.889 -194729.994 -1185879.595 10 0 55926 81000.00000 0 25122025.976 -326651.600 -4378124.047 10 0 55926 81900.00000 0 24372505.862 -380940.306 -7485254.691 10 0 55926 82800.00000 0 23254547.888 -306715.409 -10446809.141 10 0 55926 83700.00000 0 21804777.598 -59077.449 -13205112.422 10 0 55926 84600.00000 0 20070259.634 398738.022 -15706409.726 10 0 55926 85500.00000 0 18106600.097 1093551.415 -17901924.529 10 0 55927 0.00000 0 15975705.599 2040853.316 -19748820.450 10 0 55927 900.00000 0 13743292.817 3243903.034 -21211047.350 10 0 55927 1800.00000 0 11476253.398 4693350.362 -22260053.876 10 0 55927 2700.00000 0 9239985.011 6367400.309 -22875352.432 10 0 55927 3600.00000 0 7095800.447 8232513.636 -23044924.738 10 0 55927 4500.00000 0 5098524.120 10244616.148 -22765459.741 10 0 55927 5400.00000 0 3294376.520 12350766.371 -22042419.099 10 0 55927 6300.00000 0 1719235.164 14491212.266 -20889928.893 10 0 55927 7200.00000 0 397344.488 16601750.736 -19330499.758 10 0 55927 8100.00000 0 -659472.150 18616290.828 -17394581.147 10 0 55927 9000.00000 0 -1452066.607 20469512.814 -15119958.795 10 0 55927 9900.00000 0 -1993677.201 22099511.073 -12551007.719 10 0 55927 10800.00000 0 -2309111.254 23450309.553 -9737816.057 10 0 55927 11700.00000 0 -2433435.594 24474143.961 -6735197.639 10 0 55927 12600.00000 0 -2410232.483 25133414.870 -3601613.610 10 0 55927 13500.00000 0 -2289496.880 25402230.077 -398025.097 10 0 55927 14400.00000 0 -2125265.841 25267472.151 2813299.788 10 0 55927 15300.00000 0 -1973081.984 24729347.323 5970000.455 10 0 55927 16200.00000 0 -1887399.425 23801394.004 9010835.668 10 0 55927 17100.00000 0 -1919042.672 22509951.905 11876868.933 10 0 55927 18000.00000 0 -2112826.013 20893115.423 14512604.435 10 0 55927 18900.00000 0 -2505433.784 18999216.246 16867052.063 10 0 55927 19800.00000 0 -3123650.462 16884899.412 18894701.861 10 0 55927 20700.00000 0 -3983014.459 14612873.562 20556390.171 10 0 55927 21600.00000 0 -5086951.705 12249428.942 21820042.259 10 0 55927 22500.00000 0 -6426425.051 9861825.775 22661278.583 10 0 55927 23400.00000 0 -7980114.172 7515660.410 23063874.435 10 0 55927 24300.00000 0 -9715118.931 5272317.083 23020065.335 10 0 55927 25200.00000 0 -11588157.791 3186609.209 22530693.149 10 0 55927 26100.00000 0 -13547212.609 1304706.300 21605190.519 10 0 55927 27000.00000 0 -15533552.962 -337569.229 20261403.877 10 0 55927 27900.00000 0 -17484057.595 -1716006.189 18525257.814 10 0 55927 28800.00000 0 -19333738.049 -2818778.200 16430266.380 10 0 55927 29700.00000 0 -21018361.021 -3646695.319 14016899.375 10 0 55927 30600.00000 0 -22477061.438 -4212923.627 11331814.389 10 0 55927 31500.00000 0 -23654837.912 -4542184.454 8426967.933 10 0 55927 32400.00000 0 -24504826.601 -4669466.624 5358621.455 10 0 55927 33300.00000 0 -24990258.021 -4638305.480 2186260.272 10 0 55927 34200.00000 0 -25086013.933 -4498700.765 -1028554.318 10 0 55927 35100.00000 0 -24779717.759 -4304761.032 -4223377.959 10 0 55927 36000.00000 0 -24072311.155 -4112174.158 -7336098.012 10 0 55927 36900.00000 0 -22978090.791 -3975611.364 -10306146.150 10 0 55927 37800.00000 0 -21524202.119 -3946175.436 -13075684.526 10 0 55927 38700.00000 0 -19749609.806 -4069002.357 -15590741.572 10 0 55927 39600.00000 0 -17703586.894 -4381119.394 -17802274.247 10 0 55927 40500.00000 0 -15443785.158 -4909652.014 -19667135.064 10 0 55927 41400.00000 0 -13033967.070 -5670457.334 -21148924.122 10 0 55927 42300.00000 0 -10541494.268 -6667243.708 -22218708.656 10 0 55927 43200.00000 0 -8034677.770 -7891215.384 -22855595.440 10 0 55927 44100.00000 0 -5580101.025 -9321258.807 -23047144.361 10 0 55927 45000.00000 0 -3240028.146 -10924663.955 -22789614.716 10 0 55927 45900.00000 0 -1070005.830 -12658351.289 -22088039.257 10 0 55927 46800.00000 0 883240.738 -14470553.299 -20956124.427 10 0 55927 47700.00000 0 2583530.247 -16302880.089 -19415978.853 10 0 55927 48600.00000 0 4006494.533 -18092682.077 -17497675.603 10 0 55927 49500.00000 0 5140342.698 -19775610.179 -15238657.093 10 0 55927 50400.00000 0 5986089.539 -21288265.265 -12682994.863 10 0 55927 51300.00000 0 6557240.621 -22570825.004 -9880519.349 10 0 55927 52200.00000 0 6878949.482 -23569537.150 -6885837.448 10 0 55927 53100.00000 0 6986684.787 -24238974.115 -3757258.084 10 0 55927 54000.00000 0 6924466.068 -24543953.991 -555647.697 10 0 55927 54900.00000 0 6742744.767 -24461047.550 2656761.108 10 0 55927 55800.00000 0 6496022.037 -23979608.494 5817583.602 10 0 55927 56700.00000 0 6240305.545 -23102284.565 8865495.494 10 0 55927 57600.00000 0 6030513.773 -21844989.170 11741420.178 10 0 55927 58500.00000 0 5917938.005 -20236335.805 14389667.614 10 0 55927 59400.00000 0 5947869.152 -18316560.048 16759003.314 10 0 55927 60300.00000 0 6157489.124 -16135974.889 18803627.658 10 0 55927 61200.00000 0 6574114.892 -13753024.315 20484047.705 10 0 55927 62100.00000 0 7213868.351 -11232016.165 21767826.182 10 0 55927 63000.00000 0 8080827.200 -8640627.905 22630194.694 10 0 55927 63900.00000 0 9166692.026 -6047287.935 23054520.738 10 0 55927 64800.00000 0 10450983.544 -3518539.572 23032620.804 10 0 55927 65700.00000 0 11901762.224 -1116495.163 22564914.381 10 0 55927 66600.00000 0 13476841.132 1103515.936 21660416.344 10 0 55927 67500.00000 0 15125442.732 3095009.985 20336567.820 10 0 55927 68400.00000 0 16790232.135 4822038.180 18618908.243 10 0 55927 69300.00000 0 18409643.659 6260433.896 16540593.952 10 0 55927 70200.00000 0 19920405.261 7398566.968 14141771.348 10 0 55927 71100.00000 0 21260156.836 8237574.251 11468815.178 10 0 55927 72000.00000 0 22370053.855 8791056.940 8573445.206 10 0 55927 72900.00000 0 23197247.874 9084257.320 5511736.922 10 0 55927 73800.00000 0 23697139.886 9152749.175 2343044.265 10 0 55927 74700.00000 0 23835311.256 9040696.562 -871145.517 10 0 55927 75600.00000 0 23589050.005 8798754.053 -4068403.110 10 0 55927 76500.00000 0 22948406.689 8481696.982 -7186571.387 10 0 55927 77400.00000 0 21916733.633 8145882.001 -10164978.640 10 0 55927 78300.00000 0 20510682.897 7846645.913 -12945626.572 10 0 55927 79200.00000 0 18759661.173 7635753.746 -15474329.077 10 0 55927 80100.00000 0 16704762.839 7559005.246 -17701778.589 10 0 55927 81000.00000 0 14397224.609 7654102.523 -19584518.221 10 0 55927 81900.00000 0 11896465.566 7948870.659 -21085799.867 10 0 55927 82800.00000 0 9267794.119 8459908.096 -22176310.591 10 0 55927 83700.00000 0 6579877.618 9191725.402 -22834752.545 10 0 55927 84600.00000 0 3902080.356 10136410.180 -23048264.538 10 0 55927 85500.00000 0 1301781.482 11273833.389 -22812676.670 10 0 55928 0.00000 0 -1158215.007 12572389.201 -22132592.896 10 0 55928 900.00000 0 -3422069.953 13990237.980 -21021299.672 10 0 55928 1800.00000 0 -5442998.815 15476999.581 -19500502.914 10 0 55928 2700.00000 0 -7184974.048 16975826.348 -17599898.128 10 0 55928 3600.00000 0 -8623970.786 18425767.430 -15356582.848 10 0 55928 4500.00000 0 -9748703.917 19764324.553 -12814323.205 10 0 55928 5400.00000 0 -10560827.909 20930090.817 -10022689.700 10 0 55928 6300.00000 0 -11074592.885 21865360.716 -7036079.827 10 0 55928 7200.00000 0 -11315973.731 22518600.823 -3912647.639 10 0 55928 8100.00000 0 -11321311.366 22846676.784 -713162.118 10 0 55928 9000.00000 0 -11135525.867 22816742.738 2500182.467 10 0 55928 9900.00000 0 -10809979.012 22407713.897 5664980.099 10 0 55928 10800.00000 0 -10400078.364 21611260.924 8719826.245 10 0 55928 11700.00000 0 -9962725.391 20432285.046 11605506.930 10 0 55928 12600.00000 0 -9553716.207 18888854.901 14266140.526 10 0 55928 13500.00000 0 -9225204.851 17011608.591 16650250.663 10 0 55928 14400.00000 0 -9023335.805 14842646.617 18711750.359 10 0 55928 15300.00000 0 -8986144.819 12433962.323 20410819.484 10 0 55928 16200.00000 0 -9141815.427 9845475.184 21714660.056 10 0 55928 17100.00000 0 -9507363.492 7142748.182 22598116.355 10 0 55928 18000.00000 0 -10087804.139 4394483.148 23044149.268 10 0 55928 18900.00000 0 -10875835.473 1669896.487 23044157.035 10 0 55928 19800.00000 0 -11852052.281 -963917.740 22598137.106 10 0 55928 20700.00000 0 -12985681.142 -3444529.991 21714686.427 10 0 55928 21600.00000 0 -14235807.094 -5716519.376 20410840.152 10 0 55928 22500.00000 0 -15553041.864 -7733524.436 18711751.345 10 0 55928 23400.00000 0 -16881565.412 -9459916.949 16650216.918 10 0 55928 24300.00000 0 -18161456.996 -10872030.475 14266057.671 10 0 55928 25200.00000 0 -19331219.670 -11958893.255 11605362.889 10 0 55928 26100.00000 0 -20330393.647 -12722435.234 8719612.624 10 0 55928 27000.00000 0 -21102149.615 -13177160.601 5664693.200 10 0 55928 27900.00000 0 -21595753.369 -13349299.292 2499823.800 10 0 55928 28800.00000 0 -21768797.717 -13275472.731 -713585.848 10 0 55928 29700.00000 0 -21589106.836 -13000929.548 -3913124.964 10 0 55928 30600.00000 0 -21036231.422 -12577425.421 -7036595.385 10 0 55928 31500.00000 0 -20102469.857 -12060836.483 -10023225.388 10 0 55928 32400.00000 0 -18793370.336 -11508607.437 -12814859.435 10 0 55928 33300.00000 0 -17127690.663 -10977142.848 -15357099.878 10 0 55928 34200.00000 0 -15136815.441 -10519252.864 -17600377.293 10 0 55928 35100.00000 0 -12863653.337 -10181762.533 -19500927.662 10 0 55928 36000.00000 0 -10361059.223 -10003387.108 -21021656.416 10 0 55928 36900.00000 0 -7689846.321 -10012964.518 -22132871.604 10 0 55928 37800.00000 0 -4916470.878 -10228120.997 -22812871.248 10 0 55928 38700.00000 0 -2110485.805 -10654427.411 -23048372.915 10 0 55928 39600.00000 0 658130.328 -11285082.840 -22834776.714 10 0 55928 40500.00000 0 3321657.350 -12101139.479 -22176256.402 10 0 55928 41400.00000 0 5817218.541 -13072259.730 -21085676.707 10 0 55928 42300.00000 0 8089158.622 -14157973.613 -19584338.558 10 0 55928 43200.00000 0 10091115.696 -15309383.216 -17701557.389 10 0 55928 44100.00000 0 11787701.089 -16471241.778 -15474083.066 10 0 55928 45000.00000 0 13155717.715 -17584318.956 -12945373.344 10 0 55928 45900.00000 0 14184867.334 -18587951.655 -10164735.676 10 0 55928 46800.00000 0 14877918.847 -19422671.897 -7186354.941 10 0 55928 47700.00000 0 15250332.615 -20032800.073 -4068227.080 10 0 55928 48600.00000 0 15329358.985 -20368893.513 -871020.413 10 0 55928 49500.00000 0 15152651.419 -20389946.777 2343112.226 10 0 55928 50400.00000 0 14766454.924 -20065250.796 5511746.442 10 0 55928 51300.00000 0 14223448.316 -19375832.830 8573400.112 10 0 55928 52200.00000 0 13580332.923 -18315417.107 11468724.229 10 0 55928 53100.00000 0 12895270.569 -16890866.424 14141647.552 10 0 55928 54000.00000 0 12225279.384 -15122086.881 16540453.410 10 0 55928 54900.00000 0 11623697.102 -13041400.247 18618768.656 10 0 55928 55800.00000 0 11137818.060 -10692410.553 20336446.758 10 0 55928 56700.00000 0 10806802.345 -8128412.116 21660329.439 10 0 55928 57600.00000 0 10659943.735 -5410404.728 22564873.689 10 0 55928 58500.00000 0 10715367.958 -2604797.608 23032633.469 10 0 55928 59400.00000 0 10979214.869 219104.031 23054588.146 10 0 55928 60300.00000 0 11445338.142 2991727.399 22630312.213 10 0 55928 61200.00000 0 12095534.859 5645868.495 21767983.520 10 0 55928 62100.00000 0 12900295.707 8119229.305 20484229.864 10 0 55928 63000.00000 0 13820045.150 10356752.665 18803816.371 10 0 55928 63900.00000 0 14806820.795 12312659.524 16759178.799 10 0 55928 64800.00000 0 15806322.978 13952105.444 14389810.469 10 0 55928 65700.00000 0 16760250.046 15252388.313 11741513.186 10 0 55928 66600.00000 0 17608822.574 16203657.385 8865525.136 10 0 55928 67500.00000 0 18293391.389 16809094.126 5817541.190 10 0 55928 68400.00000 0 18759020.187 17084557.081 2656643.363 10 0 55928 69300.00000 0 18956933.881 17057705.182 -555838.614 10 0 55928 70200.00000 0 18846728.852 16766635.868 -3757515.004 10 0 55928 71100.00000 0 18398250.676 16258094.929 -6886149.082 10 0 55928 72000.00000 0 17593058.437 15585333.269 -9880871.471 10 0 55928 72900.00000 0 16425411.866 14805701.067 -12683371.589 10 0 55928 73800.00000 0 14902737.425 13978081.244 -15239042.223 10 0 55928 74700.00000 0 13045551.535 13160271.285 -17498053.839 10 0 55928 75600.00000 0 10886842.023 12406424.887 -19416336.791 10 0 55928 76500.00000 0 8470931.912 11764662.575 -20956451.327 10 0 55928 77400.00000 0 5851871.779 11274953.303 -22088327.533 10 0 55928 78300.00000 0 3091426.901 10967357.598 -22789860.147 10 0 55928 79200.00000 0 256742.673 10860707.341 -23047346.090 10 0 55928 80100.00000 0 -2582214.430 10961778.698 -22855755.784 10 0 55928 81000.00000 0 -5355333.574 11264993.539 -22218832.769 10 0 55928 81900.00000 0 -7995042.286 11752662.180 -21149019.561 10 0 55928 82800.00000 0 -10438883.003 12395757.042 -19667211.264 10 0 55928 83700.00000 0 -12631875.983 13155184.161 -17802341.939 10 0 55928 84600.00000 0 -14528570.213 13983498.180 -15590812.117 10 0 55928 85500.00000 0 -16094697.025 14826987.494 -13075769.181 10 0 55929 0.00000 0 -17308358.332 15628040.447 -10306255.366 10 0 55929 900.00000 0 -18160700.956 16327691.406 -7336240.423 10 0 55929 1800.00000 0 -18656050.898 16868238.511 -4223559.760 10 0 55929 2700.00000 0 -18811503.254 17195820.804 -1028778.507 10 0 55929 3600.00000 0 -18655988.284 17262846.188 2185994.468 10 0 55929 4500.00000 0 -18228854.478 17030166.629 5358318.915 10 0 55929 5400.00000 0 -17578030.852 16468909.121 8426637.630 10 0 55929 6300.00000 0 -16757847.624 15561885.380 11331469.045 10 0 55929 7200.00000 0 -15826608.497 14304521.384 14016554.732 10 0 55929 8100.00000 0 -14844017.601 12705268.266 16429940.058 10 0 55929 9000.00000 0 -13868569.574 10785477.714 18524967.922 10 0 55929 9900.00000 0 -12955012.179 8578747.460 20261167.422 10 0 55929 10800.00000 0 -12151987.145 6129764.115 21605021.785 10 0 55929 11700.00000 0 -11499947.044 3492691.091 22530602.234 10 0 55929 12600.00000 0 -11029434.116 729167.855 23020057.006 10 0 55929 13500.00000 0 -10759791.823 -2093997.776 23063947.421 10 0 55929 14400.00000 0 -10698361.895 -4907350.287 22661425.448 10 0 55929 15300.00000 0 -10840199.743 -7641417.493 21820249.846 10 0 55929 16200.00000 0 -11168319.811 -10229344.993 20556640.613 10 0 55929 17100.00000 0 -11654460.800 -12609426.943 18894974.047 10 0 55929 18000.00000 0 -12260339.364 -14727429.892 16867323.401 10 0 55929 18900.00000 0 -12939340.685 -16538614.691 14512852.760 10 0 55929 19800.00000 0 -13638576.196 -18009373.484 11877074.307 10 0 55929 20700.00000 0 -14301223.158 -19118414.056 9010981.895 10 0 55929 21600.00000 0 -14869048.687 -19857442.311 5970076.215 10 0 55929 22500.00000 0 -15285012.591 -20231314.056 2813299.196 10 0 55929 23400.00000 0 -15495839.448 -20257649.210 -398102.506 10 0 55929 24300.00000 0 -15454451.006 -19965923.995 -3601763.379 10 0 55929 25200.00000 0 -15122155.279 -19396078.651 -6735411.384 10 0 55929 26100.00000 0 -14470498.402 -18596698.801 -9738082.760 10 0 55929 27000.00000 0 -13482699.188 -17622846.836 -12551315.133 10 0 55929 27900.00000 0 -12154603.620 -16533634.829 -15120294.858 10 0 55929 28800.00000 0 -10495116.740 -15389641.689 -17394935.241 10 0 55929 29700.00000 0 -8526091.448 -14250284.138 -19330863.647 10 0 55929 30600.00000 0 -6281676.713 -13171253.222 -20890297.364 10 0 55929 31500.00000 0 -3807150.792 -12202125.387 -22042790.228 10 0 55929 32400.00000 0 -1157286.882 -11384249.767 -22765834.811 10 0 55929 33300.00000 0 1605681.479 -10749001.528 -23045307.889 10 0 55929 34200.00000 0 4414410.732 -10316475.492 -22875750.097 10 0 55929 35100.00000 0 7199015.549 -10094675.469 -22260474.092 10 0 55929 36000.00000 0 9889747.819 -10079233.428 -21211499.001 10 0 55929 36900.00000 0 12419674.433 -10253670.090 -19749312.479 10 0 55929 37800.00000 0 14727241.949 -10590185.306 -17902465.193 10 0 55929 38700.00000 0 16758621.127 -11050943.928 -15707005.954 10 0 55929 39600.00000 0 18469733.457 -11589801.757 -13205769.043 10 0 55929 40500.00000 0 19827875.559 -12154397.343 -10447528.313 10 0 55929 41400.00000 0 20812874.403 -12688519.850 -7486035.319 10 0 55929 42300.00000 0 21417726.230 -13134651.577 -4378961.298 10 0 55929 43200.00000 0 21648694.157 -13436576.411 -1186764.572 10 0 55929 44100.00000 0 21524862.380 -13541942.990 2028493.584 10 0 55929 45000.00000 0 21077167.868 -13404673.575 5204360.560 10 0 55929 45900.00000 0 20346952.453 -12987116.562 8279207.318 10 0 55929 46800.00000 0 19384098.176 -12261851.774 11193422.628 10 0 55929 47700.00000 0 18244825.902 -11213072.709 13890563.348 10 0 55929 48600.00000 0 16989250.896 -9837487.966 16318438.893 10 0 55929 49500.00000 0 15678798.510 -8144704.373 18430109.734 10 0 55929 50400.00000 0 14373588.428 -6157076.059 20184781.670 10 0 55929 51300.00000 0 13129896.452 -3909025.807 21548580.056 10 0 55929 52200.00000 0 11997799.039 -1445866.585 22495190.554 10 0 55929 53100.00000 0 11019097.735 1177828.346 23006355.496 10 0 55929 54000.00000 0 10225608.768 3900240.252 23072217.609 10 0 55929 54900.00000 0 9637887.758 6654622.662 22691505.453 10 0 55929 55800.00000 0 9264441.647 9371827.687 21871557.500 10 0 55929 56700.00000 0 9101459.893 11982938.298 20628184.466 10 0 55929 57600.00000 0 9133075.785 14421899.465 18985372.082 10 0 55929 58500.00000 0 9332147.005 16628040.825 16974829.147 10 0 55929 59400.00000 0 9661523.250 18548387.736 14635388.356 10 0 55929 60300.00000 0 10075748.515 20139665.759 12012269.951 10 0 55929 61200.00000 0 10523127.475 21369915.684 9156220.984 10 0 55929 62100.00000 0 10948069.965 22219651.938 6122545.367 10 0 55929 63000.00000 0 11293615.444 22682515.679 2970042.235 10 0 55929 63900.00000 0 11504031.346 22765394.611 -240127.575 10 0 55929 64800.00000 0 11527375.431 22488003.710 -3445625.516 10 0 55929 65700.00000 0 11317913.213 21881943.651 -6584146.884 10 0 55929 66600.00000 0 10838287.091 20989275.714 -9594636.035 10 0 55929 67500.00000 0 10061343.825 19860672.645 -12418481.078 10 0 55929 68400.00000 0 8971541.099 18553223.013 -15000663.967 10 0 55929 69300.00000 0 7565871.524 17127981.608 -17290842.591 10 0 55929 70200.00000 0 5854262.770 15647369.377 -19244342.800 10 0 55929 71100.00000 0 3859434.631 14172532.970 -20823040.136 10 0 55929 72000.00000 0 1616217.019 12760775.801 -21996113.142 10 0 55929 72900.00000 0 -829644.275 11463169.503 -22740652.932 10 0 55929 73800.00000 0 -3423145.419 10322446.982 -23042116.571 10 0 55929 74700.00000 0 -6102077.429 9371266.233 -22894615.010 10 0 55929 75600.00000 0 -8799388.892 8630918.220 -22301029.749 10 0 55929 76500.00000 0 -11445760.015 8110533.090 -21272955.839 10 0 55929 77400.00000 0 -13972280.377 7806817.765 -19830472.356 10 0 55929 78300.00000 0 -16313118.409 7704335.120 -18001745.015 10 0 55929 79200.00000 0 -18408070.936 7776311.925 -15822468.967 10 0 55929 80100.00000 0 -20204886.046 7985940.053 -13335163.170 10 0 55929 81000.00000 0 -21661262.395 8288114.508 -10588330.724 10 0 55929 81900.00000 0 -22746441.719 8631533.142 -7635502.341 10 0 55929 82800.00000 0 -23442328.702 8961067.695 -4534182.577 10 0 55929 83700.00000 0 -23744092.538 9220304.361 -1344720.382 10 0 55929 84600.00000 0 -23660226.587 9354145.123 1870873.079 10 0 55929 85500.00000 0 -23212065.472 9311358.874 5050135.315 99